Regional Weather Roundup
Issued by NWS

Home | Current Version | Previous Version | Graphics & Text | Print | Product List | Glossary On
Versions: 1 2 3 4 5 6 7 8 9 10 11 12 13 14 15 16 17 18 19 20 21 22 23 24 25 26 27 28 29 30 31 32 33 34 35 36 37 38 39 40 41 42 43 44 45 46 47 48 49 50
000
ASUS43 KMKX 231500
RWRWI

WISCONSIN REGIONAL WEATHER ROUNDUP
NATIONAL WEATHER SERVICE MILWAUKEE/SULLIVAN WI
1000 AM CDT TUE SEP 23 2014

NOTE: "FAIR" INDICATES FEW OR NO CLOUDS BELOW 12,000 FEET WITH NO
SIGNIFICANT WEATHER AND/OR OBSTRUCTIONS TO VISIBILITY.

WIZ001-002-006>008-014>016-023>028-231600-
NORTHWEST WISCONSIN

CITY           SKY/WX    TMP DP  RH WIND       PRES   REMARKS
SUPERIOR ARPT  SUNNY     57  52  83 SW3       30.22S
ASHLAND        SUNNY     64  53  67 SW7       30.24R
HAYWARD        SUNNY     62  53  72 SW3       30.25R
SIREN          SUNNY     60  52  75 S5        30.23R
CUMBERLAND     SUNNY     55  52  88 S3        30.26R
RICE LAKE      SUNNY     56  55  97 SE3       30.28R
CHETEK         SUNNY     56  52  89 CALM      30.27R
LADYSMITH      SUNNY     58  53  84 CALM      30.29R
EAU CLAIRE     NOT AVBL
MENOMONIE      SUNNY     57  56  99 SE5       30.27R
NEW RICHMOND   SUNNY     61  51  69 S6        30.24S
OSCEOLA        SUNNY     61  54  78 S6        30.26S
$$

WIZ003>005-009-010-017-018-231600-
NORTH CENTRAL WISCONSIN

CITY           SKY/WX    TMP DP  RH WIND       PRES   REMARKS
MANITOWISH WTR SUNNY     57  53  87 S3        30.26S
ARBOR VITAE    SUNNY     59  53  80 CALM      30.27R
WOODRUFF       SUNNY     59  53  80 CALM      30.27R
RHINELANDER    SUNNY     62  52  69 SW7       30.28S
EAGLE RIVER    SUNNY     59  51  76 SW3       30.27R
LAND O LAKES   SUNNY     61  53  73 SW3       30.27S
PHILLIPS       SUNNY     60  53  77 CALM      30.27R
TOMAHAWK       SUNNY     57  52  83 CALM      30.28S
MEDFORD        SUNNY     60  53  77 CALM      30.28R
MERRILL        SUNNY     55  52  90 CALM      30.28S
$$

WIZ029-030-035-036-043>047-231600-
CENTRAL WISCONSIN

CITY           SKY/WX    TMP DP  RH WIND       PRES   REMARKS
WAUSAU         SUNNY     58  52  80 S5        30.28R
MOSINEE        NOT AVBL
MARSHFIELD     SUNNY     62  54  74 W3        30.29R
STEVENS POINT  SUNNY     58  50  76 SW3       30.30R
WAUPACA        SUNNY     60  55  84 CALM      30.30R
WAUTOMA        NOT AVBL
WISC RAPIDS    SUNNY     60  52  74 SW6       30.31R
CAMP DOUGLAS   NOT AVBL
$$

WIZ011>013-019>022-031-037>040-048>050-231600-
NORTHEAST WISCONSIN

CITY           SKY/WX    TMP DP  RH WIND       PRES   REMARKS
ANTIGO         SUNNY     60  53  77 CALM      30.29S
SHAWANO        SUNNY     63  54  71 SW3       30.29S
OCONTO         SUNNY     61  54  77 W7        30.27S
STURGEON BAY   SUNNY     63  54  72 W10       30.28S
GREEN BAY      SUNNY     63  55  75 SW3       30.29S
MANITOWOC      NOT AVBL
APPLETON       SUNNY     61  54  77 VRB3      30.30R
CLINTONVILLE   SUNNY     61  54  77 CALM      30.29S
OSHKOSH        SUNNY     63  54  72 S3        30.30R
$$

WIZ032>034-041-042-053>061-231600-
SOUTHWEST WISCONSIN

CITY           SKY/WX    TMP DP  RH WIND       PRES   REMARKS
LA CROSSE      SUNNY     57  53  86 SE7       30.30R
SPARTA         SUNNY     56  51  81 CALM      30.30S
VIROQUA        SUNNY     61  51  70 S3        30.31R
BOSCOBEL       PTSUNNY   53  51  93 CALM      30.33R FOG
PRAIRIE DU CHI SUNNY     55  51  86 CALM      30.31S
PLATTEVILLE    SUNNY     61  52  71 S3        30.34R
$$

WIZ056-057-062-063-064-067-068-231600-
SOUTH CENTRAL WISCONSIN

CITY           SKY/WX    TMP DP  RH WIND       PRES   REMARKS
REEDSBURG      SUNNY     59  53  78 CALM      30.31S
BARABOO/DELLS  SUNNY     62  49  63 SW3       30.31R
LONE ROCK      NOT AVBL
MINERAL POINT  SUNNY     61  50  67 SW3       30.33R
MADISON        MOSUNNY   63  49  60 SW6       30.32R
MIDDLETON      SUNNY     65  49  58 W6        30.32S
WATERTOWN      SUNNY     60  52  76 SW3       30.32R
MONROE         SUNNY     61  50  67 SW7       30.33R
JANESVILLE     SUNNY     63  48  59 SW6       30.33R
$$

WIZ051-052-058>065-066-070>072-231600-
SOUTHEAST WISCONSIN

CITY           SKY/WX    TMP DP  RH WIND       PRES   REMARKS
MILWAUKEE      MOSUNNY   65  49  56 W6        30.32S
WAUKESHA       SUNNY     61  52  72 SW3       30.33S
MILWAUKEE/TIMM SUNNY     63  48  59 W6        30.33R
RACINE         SUNNY     64  49  57 W9        30.34R
BURLINGTON     SUNNY     61  49  64 W6        30.33R
KENOSHA        SUNNY     63  50  62 W9        30.33S
FOND DU LAC    SUNNY     62  52  69 SW5       30.31R
SHEBOYGAN      SUNNY     65  54  67 VRB3      30.30R
WEST BEND      SUNNY     63  48  59 W5        30.31R
JUNEAU         SUNNY     57  51  78 S5        30.32R
$$

LSZ147-162-231600-
LAKE SUPERIOR

STATION/POSITION TIME  TEMP    WIND        PRES    WAVE
                       AIR SEA DIR/SP/G            HT/PER
                 (UTC) (F)     (DEG/KT/KT) (MB)    (FT/S)
W MID LAKE BUOY  1350   51 48  230/  8/  8 1022.7R   1/ 3
DEVILS ISLAND    1400   58     220/  8/ 10 1023.0R
PORT WING        1400   60     180/  3/  4 1023.0S
SAXON HARBOR     1400   61     200/  7/  9 1023.4R
$$

LMZ867-665-643>646-231600-
LAKE MICHIGAN

STATION/POSITION TIME  TEMP    WIND        PRES    WAVE
                       AIR SEA DIR/SP/G            HT/PER
                 (UTC) (F)     (DEG/KT/KT) (MB)    (FT/S)
CHAMBERS ISLAND  1400   58     210/  6/  8 1024.7R
S GREEN BAY BUOY 1400   57                 1025.9
N MID LAKE BUOY  1350   57 57  250/ 10/ 12 1024.0R   2/ 4
NORTHPORT PIER   1400   62     270/  7/ 13 1023.7S
SISTER BAY       1412          280/ 10/ 11   N/A
ALGOMA LAKESHORE 1340          330/  8/ 11   N/A
KEWAUNEE LAKESHO 1400   60     280/  7/ 10 1024.1R
SHEBOYGAN LAKESH 1400   60 54  280/  1/  2 1026.0R
PORT WASHINGTON  1400   62     290/  7/  8 1026.4
ATWATER BUOY     1400   59     250/ 10/ 12 1026.9
S MID LAKE BUOY  1350   61 61  240/ 12/ 12 1026.9R   2/ 4
KENOSHA   LAKESH 1400   59     250/  8/ 12 1026.8R
$$

TC  - TEMPERATURE IN CELSIUS
VSB - VISIBILITY IN STATUTE MILES
WCI - WIND CHILL INDEX
HX  - HEAT INDEX



USA.gov is the U.S. government's official web portal to all federal, state and local government web resources and services.